Location: Street
(51.1247°N, 2.7429°W)
Time: 03:41:04
(UTC+00:00)

PCSat - Visible Passes

Search period start: 27 February 2024 00:00
Search period end: 08 March 2024 00:00
Orbit: 784 x 791 km, 67.0° (Epoch: 26 February)

Date Brightness Start Highest point End Pass type
(mag) Time Alt. Az. Time Alt. Az. Time Alt. Az.
04 Mar 12.3 06:00:09 10° SSE 06:04:09 21° ESE 06:08:10 10° ENE visible
05 Mar 12.5 05:29:38 10° SE 05:32:49 16° ESE 05:36:00 10° ENE visible
06 Mar 12.7 04:59:49 10° ESE 05:01:32 11° ESE 05:03:15 10° E visible
07 Mar 10.7 06:07:10 10° S 06:12:19 48° ESE 06:17:32 10° NE visible
